map of ZAZ home
Great Circle Mapper logo
ZAZ - Airport
Location
City:  Zaragoza, Aragón, Spain
Name:Zaragoza Airport
Old (Alt.):Zaragoza AB
ICAO / IATA:LEZG / ZAZ

Details
Type:Airport (Aerodrome, Airfield)
Use:Public/Civil, Military
Latitude:41°39'58"N (41.666242)
Longitude:1°02'30"W (-1.041552)
Datum:WGS 1984
Elevation:863 ft (263 m)
Runways:2
Longest:12198 × 148 ft (3718 × 45 m), paved

Time
Time Zone:UTC+1 (DST+2)
Local Time:

Weather
METAR:LEZG 292030Z 32017KT CAVOK 20/09 Q1017
TAF:LEZG 291700Z 2918/3018 27005KT CAVOK TX30/3015Z TN17/3006Z
TEMPO 2918/2920 32020G32KT
BECMG 3006/3008 32012KT
TEMPO 3007/3014 32016G26KT

Related Locations
Nearby:
Farthest:NZPO: 12283 mi / 19767 km
Porangahau, NZ

Find:

   beyond  
but within

Other Information
Maps:
NOTAMs:
Links:
Sources:

  
flag of Spain
flag of Aragón
  

Airport Diagram

Airport diagram for ZAZ

Airport diagram (OBSOLETE) from NGA

Sectional Chart

Flight Planning
at skyvector.com

Satellite Image

Google Maps Satellite View

 

Copyright © 2004-2014 Karl L. Swartz. All rights reserved.
The Great Circle Mapper name and logo are trademarks of the Great Circle Mapper.
All other trademarks mentioned herein belong to their respective owners.
Please see credits for attibutions and further copyright information.

  Follow gcmap on Facebook Follow gcmap on Twitter

hCard Microformat

Geo Microformat